Kuchera_Ratio
0.0 0.0 0.0 0.0 0.0 0.0 0.0 0.0 0.0 0.0 0.0 0.0 0.0 0.0 0.0 0.0 0.0 0.0 0.0 0.0 0.0 0.0 0.0 0.0 0.0 0.0 0.0 0.0 0.0 0.0 0.0 0.0 0.0 0.0 0.0 0.0 0.0 0.0 0.0 0.0 0.0 0.0 0.0 0.0 0.0 0.0 0.0 0.0 0.0 0.0 0.0 0.0
0.0 0.0 0.0 0.0 0.0 0.0 0.0 0.0 0.0 0.0 0.0 0.0 0.0 0.0 0.0 0.0 0.0 0.0 0.0 0.0 0.0 0.0 0.0 0.0 0.0 0.0 0.0 0.0 0.0 0.0 0.0 0.0 0.0 0.0 0.0 0.0 0.0 0.0 0.0 0.0 0.0 0.0 0.0 0.0 0.0 0.0 0.0 0.0 0.0 0.0 0.0 0.0
0.0 0.0 0.0 0.0 0.0 0.0 0.0 0.0 0.0 0.0 0.0 0.0 0.0 0.0 0.0 0.0 0.0 0.0 0.0 0.0 0.0 0.0 0.0 0.0 0.0 0.0 0.0 0.0 0.0 0.0 0.0 0.0 0.0 0.0 0.0 0.0 0.0 0.0 0.0 0.0 0.0 0.0 0.0 0.0 0.0 0.0 0.0 0.0 0.0 0.0 0.0 0.0
0.0 0.0 0.0 0.0 0.0 0.0 0.0 0.0 0.0 0.0 0.0 0.0 0.0 0.0 0.0 0.0 0.0 0.0 0.0 0.0 0.0 0.0 0.0 0.0 0.0 0.0 0.0 0.0 0.0 0.0 0.0 0.0 0.0 0.0 0.0 0.0 0.0 0.0 0.0 0.0 0.0 0.0 0.0 0.0 0.0 0.0 0.0 0.0 0.0 0.0 0.0 0.0
0.0 0.0 0.0 0.0 0.0 0.0 0.0 0.0 0.0 0.0 0.0 0.0 0.0 0.0 0.0 0.0 0.0 0.0 0.0 0.0 0.0 0.0 0.0 0.0 0.0 0.0 0.0 0.0 0.0 0.0 0.0 0.0 0.0 0.0 0.0 0.0 0.0 0.0 0.0 0.0 0.0 0.0 0.0 0.0 0.0 0.0 0.0 0.0 0.0 0.0 0.0 0.0
0.0 0.0 0.0 0.0 0.0 0.0 0.0 0.0 0.0 0.0 0.0 0.0 0.0 0.0 0.0 0.0 0.0 0.0 0.0 0.0 0.0 0.0 0.0 0.0 0.0 0.0 0.0 0.0 0.0 0.0 0.0 0.0 0.0 0.0 0.0 0.0 0.0 0.0 0.0 0.0 0.0 0.0 0.0 0.0 0.0 0.0 0.0 0.0 0.0 0.0 0.0 0.0
0.0 0.0 0.0 0.0 0.0 0.0 0.0 0.0 0.0 0.0 0.0 0.0 0.0 0.0 0.0 0.0 0.0 0.0 0.0 0.0 0.0 0.0 0.0 0.0 0.0 0.0 0.0 0.0 0.0 0.0 0.0 0.0 0.0 0.0 0.0 0.0 0.0 0.0 0.0 0.0 0.0 0.0 0.0 0.0 0.0 0.0 0.0 0.0 0.0 0.0 0.0 0.0
0.0 0.0 0.0 0.0 0.0 0.0 0.0 0.0 0.0 0.0 0.0 0.0 0.0 0.0 0.0 0.0 0.0 0.0 0.0 0.0 0.0 0.0 0.0 0.0 0.0 0.0 0.0 0.0 0.0 0.0 0.0 0.0 0.0 0.0 0.0 0.0 0.0 0.0 0.0 0.0 0.0 0.0 0.0 0.0 0.0 0.0 0.0 0.0 0.0 0.0 0.0 0.0
0.0 0.0 0.0 0.0 0.0 0.0 0.0 0.0 0.0 0.0 0.0 0.0 0.0 0.0 0.0 0.0 0.0 0.0 0.0 0.0 0.0 0.0 0.0 0.0 0.0 0.0 0.0 0.0 0.0 0.0 0.0 0.0 0.0 0.0 0.0 0.0 0.0 0.0 0.0 0.0 0.0 0.0 0.0 0.0 0.0 0.0 0.0 0.0 0.0 0.0 0.0 0.0
0.0 0.0 0.0 0.0 0.0 0.0 0.0 0.0 0.0 0.0 0.0 0.0 0.0 0.0 0.0 0.0 0.0 0.0 0.0 0.0 0.0 0.0 0.0 0.0 0.0 0.0 0.0 0.0 0.0 0.0 0.0 0.0 0.0 0.0 0.0 0.0 0.0 0.0 0.0 0.0 0.0 0.0 0.0 0.0 0.0 0.0 0.0 0.0 0.0 0.0 0.0 0.0
0.0 0.0 0.0 0.0 0.0 0.0 0.0 0.0 0.0 0.0 0.0 0.0 0.0 0.0 0.0 0.0 0.0 0.0 0.0 0.0 0.0 0.0 0.0 0.0 0.0 0.0 0.0 0.0 0.0 0.0 0.0 0.0 0.0 0.0 0.0 0.0 0.0 0.0 0.0 0.0 0.0 0.0 0.0 0.0 0.0 0.0 0.0 0.0 0.0 0.0 0.0 0.0
0.0 0.0 0.0 0.0 0.0 0.0 0.0 0.0 0.0 0.0 0.0 0.0 0.0 0.0 0.0 0.0 0.0 0.0 0.0 0.0 0.0 0.0 0.0 0.0 0.0 0.0 0.0 0.0 0.0 0.0 0.0 0.0 0.0 0.0 0.0 0.0 0.0 0.0 0.0 0.0 0.0 0.0 0.0 0.0 0.0 0.0 0.0 0.0 0.0 0.0 0.0 0.0
0.0 0.0 0.0 0.0 0.0 0.0 0.0 0.0 0.0 0.0 0.0 0.0 0.0 0.0 0.0 0.0 0.0 0.0 0.0 0.0 0.0 0.0 0.0 0.0 0.0 0.0 0.0 0.0 0.0 0.0 0.0 0.0 0.0 0.0 0.0 0.0 0.0 0.0 0.0 0.0 0.0 0.0 0.0 0.0 0.0 0.0 0.0 0.0 0.0 0.0 0.0 0.0
0.0 0.0 0.0 0.0 0.0 0.0 0.0 0.0 0.0 0.0 0.0 0.0 0.0 0.0 0.0 0.0 0.0 0.4 0.9 1.0 0.6 0.8 0.6 0.0 0.1 1.2 2.6 2.7 1.3 0.3 1.1 0.0 0.0 0.4 0.3 0.2 0.3 0.1 0.0 0.0 0.0 0.0 0.0 0.0 0.0 0.0 0.0 0.0 0.0 0.0 0.0 0.0
0.0 0.0 0.0 0.0 0.0 0.0 0.0 0.0 0.0 0.0 0.0 0.0 0.0 0.0 0.0 0.5 1.0 1.3 1.7 1.7 1.9 2.3 2.5 3.0 3.4 4.0 4.8 5.5 3.8 2.5 2.6 1.4 2.8 3.4 3.7 3.5 3.7 3.2 2.8 2.2 0.9 0.8 0.4 0.0 0.0 0.0 0.0 0.0 0.0 0.0 0.0 0.0
0.0 0.0 0.0 0.0 0.0 0.0 0.0 0.0 0.0 0.0 0.0 0.0 0.0 0.5 1.1 1.3 1.6 1.8 2.0 2.3 2.6 3.2 4.0 4.5 5.1 5.9 6.6 7.3 5.8 4.3 4.8 5.6 5.5 5.8 5.8 5.2 5.3 4.8 4.8 4.7 4.2 2.8 2.5 2.8 2.8 2.6 2.1 0.1 0.0 0.0 0.0 0.0
0.0 0.0 0.0 0.0 0.0 0.0 0.0 0.0 0.0 0.0 0.0 0.0 1.2 1.8 2.0 2.0 2.0 2.1 2.5 3.2 4.0 4.8 5.7 6.6 7.5 8.2 9.0 9.0 7.7 6.6 7.8 8.1 8.9 9.2 9.4 9.3 7.8 8.1 8.4 8.5 7.8 6.3 6.4 8.1 7.9 6.5 5.3 3.0 0.9 0.0 0.0 0.0
0.0 0.0 0.0 0.0 0.0 0.0 0.0 0.0 0.0 0.0 0.3 1.3 2.0 2.1 2.1 2.0 2.3 3.0 3.8 4.6 5.6 6.7 7.8 9.0 10.0 10.3 10.3 10.0 9.8 9.6 9.7 10.1 10.4 10.6 10.6 10.7 10.8 10.8 11.7 11.6 10.4 10.8 12.1 11.1 9.9 9.3 7.3 5.3 5.1 4.6 3.3 1.1
0.0 0.0 0.0 0.0 0.0 0.0 0.0 0.0 0.1 0.3 0.6 1.1 1.5 1.8 1.8 2.3 3.3 4.4 5.6 6.9 8.0 9.4 10.5 10.9 10.8 10.5 10.3 9.9 9.7 9.5 9.5 9.8 10.2 10.3 10.5 10.6 10.7 11.1 11.3 11.5 11.8 12.2 12.4 12.8 13.0 11.9 9.4 9.5 8.5 7.6 5.8 2.2
0.0 0.0 0.0 0.0 0.0 0.3 0.4 0.5 0.3 0.1 0.6 1.3 1.9 2.4 2.9 3.6 4.8 6.1 7.8 9.2 10.5 11.8 12.1 12.0 11.6 11.0 10.5 10.1 9.8 9.7 9.8 10.2 10.7 10.6 10.9 11.3 11.4 11.5 11.7 12.0 12.4 12.6 13.0 13.4 13.7 12.7 12.0 11.8 10.5 9.5 7.3 6.7
0.0 0.0 0.0 0.3 0.6 1.1 1.3 0.8 0.5 1.3 2.4 3.1 3.6 3.9 4.5 5.5 6.8 8.4 9.7 11.0 12.3 12.7 12.5 12.3 12.1 11.5 11.1 10.8 10.7 10.7 10.7 11.0 11.4 11.2 11.5 12.2 12.5 12.7 12.6 12.7 13.1 13.2 13.6 14.0 14.4 13.8 13.6 13.0 12.2 11.5 8.6 11.4
0.0 0.0 0.5 0.8 1.3 2.0 2.0 1.6 2.1 3.6 4.5 4.7 5.0 5.4 6.5 8.1 9.4 10.6 11.6 12.5 12.7 12.8 12.5 12.3 12.1 11.9 11.7 11.4 11.2 11.0 11.0 11.5 12.2 12.5 12.9 13.2 13.6 14.0 13.9 13.6 13.9 13.9 14.2 14.9 15.5 15.2 14.8 14.2 12.8 12.2 11.6 12.6
0.0 0.6 1.3 1.6 2.3 2.6 2.2 2.6 3.9 4.7 5.1 5.8 6.6 7.8 9.6 11.1 12.0 12.5 12.5 12.8 12.8 12.4 12.1 11.9 11.6 11.5 11.3 11.3 11.4 12.0 12.4 12.8 13.0 13.2 13.5 13.6 13.7 14.3 14.7 14.4 14.7 15.0 15.0 15.6 16.3 16.0 15.6 14.5 14.0 12.5 12.7 13.8
1.4 1.3 1.4 2.1 2.6 2.6 3.0 4.3 5.3 5.6 6.3 7.7 9.3 11.1 12.4 12.5 12.5 12.6 12.9 12.4 11.9 11.7 11.6 11.5 11.5 11.8 12.1 12.4 12.7 12.8 12.9 12.8 12.7 12.5 12.8 13.4 13.6 14.3 15.3 15.5 15.7 16.0 15.8 16.1 16.8 16.8 16.3 15.3 14.9 13.7 14.4 15.1
0.6 0.8 1.3 2.5 3.3 4.1 5.7 6.8 7.1 7.8 9.0 10.2 11.9 12.7 12.5 12.5 12.8 12.5 12.2 11.8 11.8 12.1 12.2 12.3 12.4 12.7 12.9 12.9 12.9 12.7 12.7 12.8 13.1 13.6 14.0 14.9 15.6 16.0 16.6 16.9 17.0 17.1 16.9 17.6 17.8 18.0 17.7 17.4 15.4 14.4 16.0 16.2
0.9 2.0 3.4 4.5 5.6 6.9 8.1 8.7 9.4 10.7 11.8 12.6 12.8 12.9 13.0 12.8 12.5 12.4 12.4 12.4 12.3 12.5 12.6 12.7 12.8 12.9 12.9 13.0 13.2 13.6 14.1 14.7 15.3 15.9 16.0 16.3 16.8 17.2 17.7 18.0 18.0 18.0 18.1 18.3 18.7 19.1 19.6 19.8 16.9 15.6 18.2 17.3
2.8 4.3 5.9 6.6 7.4 8.5 9.1 9.8 11.5 12.4 13.0 13.2 13.3 13.2 13.0 12.9 12.8 12.6 12.6 12.6 12.5 12.6 12.7 13.0 13.2 13.4 13.5 13.8 14.4 15.1 15.8 16.0 16.2 16.4 16.7 16.9 17.2 17.7 18.4 19.0 18.7 19.0 19.6 19.8 19.9 20.2 20.5 20.9 21.4 20.1 18.6 18.9
5.1 6.5 7.3 7.8 8.5 9.3 9.9 11.0 12.4 13.0 13.6 13.4 13.2 13.1 12.9 12.6 12.5 12.3 12.4 12.5 12.6 12.8 13.2 13.6 13.9 14.1 14.5 15.0 15.6 15.9 16.0 16.3 16.6 16.8 17.0 17.3 17.6 18.0 18.8 19.6 20.4 19.6 21.3 21.5 21.6 21.7 21.8 22.1 22.5 23.0 23.4 23.6
7.3 8.1 8.3 8.7 9.0 9.5 10.2 11.3 12.5 13.5 13.3 13.0 12.8 12.5 12.3 12.0 12.0 12.2 12.4 12.8 13.1 13.6 13.9 14.2 14.6 15.0 15.6 16.0 16.2 16.4 16.6 16.8 17.0 17.2 17.5 18.0 18.5 19.0 19.6 20.5 21.5 22.4 22.1 23.8 21.3 24.1 24.0 24.0 24.0 24.3 24.6 24.7
7.9 8.4 8.5 9.0 9.2 9.7 10.9 12.2 13.1 12.9 12.7 12.5 12.3 12.2 12.1 12.1 12.4 12.8 13.2 13.6 14.0 14.4 14.6 14.9 15.4 16.1 16.3 16.5 16.6 16.8 17.0 17.2 17.6 18.1 18.6 19.1 19.7 20.5 21.2 22.1 23.0 24.1 24.0 23.6 23.1 23.8 24.5 24.8 27.3 27.0 27.0 25.2
8.5 8.9 9.3 9.9 10.5 11.3 12.4 12.8 12.6 12.5 12.4 12.4 12.3 12.3 12.5 12.9 13.2 13.5 14.0 14.4 14.7 14.9 15.3 15.8 16.3 16.5 16.7 16.9 17.0 17.1 17.4 17.9 18.5 19.2 20.0 20.7 21.5 22.3 23.1 23.4 24.7 25.5 26.5 26.0 24.6 25.0 25.7 25.6 25.7 26.2 27.3 28.8